Location: *
(37.9500°N, 27.3666°E)
Time: 23:57:43
(UTC+00:00)

Cosmos 614 Rocket - Pass Details

Date: 04 June 2022
Orbit: 732 x 764 km, 74.1° (Epoch: 01 July)

Event Time Altitude Azimuth Distance (km) Brightness Sun altitude
Rises 23:53:15 0° 326° (NW) 3,227 7.6 -24.8°
Reaches altitude 10° 23:56:05 10° 312° (NW) 2,300 6.6 -24.5°
Enters shadow 23:58:37 20° 285° (WNW) 1,717 5.7 -24.3°
